パンスターズ彗星

C/2020 K5 ( PanSTARRS )

English version
Home page
Updated on September 18, 2021

---------------------------------------------------------------------

・ プロフィール

発見日 2020年5月25日
発見光度 20.7等
発見者 Pan-STARRS1 1.8-m Ritchey-Chretien reflector at Haleakala

・ 写真集

・ 軌道要素

Epoch 2021 May 26.0 TT = JDT 2459360.5
T 2021 June 5.56988 TT                                  Rudenko
q   1.5356596            (2000.0)            P               Q
z  -0.0009931      Peri.  249.58763     +0.33976695     +0.19781044
 +/-0.0000037      Node    86.16478     +0.00193813     +0.97748270
e   1.0015250      Incl.   67.15170     -0.94050766     +0.07347515
From 80 observations 2020 Apr. 3-2021 May 18, mean residual 0".7.

・ 星図

・ 光度変化

        m1 = 14.0 + 5 logΔ + 8.0 log r(t + 200)

        ※ 灰色の曲線は、m1 = 10.5 + 5 logΔ + 10.0 log r の光度曲線です。

---------------------------------------------------------------------

軌道要素はM.P.E.C. 2021-R75に掲載されたものです。
星図はステラナビゲータ Ver.10 (アストロアーツ) で作成したものです。
光度グラフはComet for Windowsで作成したものです。

---------------------------------------------------------------------

Copyright(C) Seiichi Yoshida (comet@aerith.net). All rights reserved.